Wind_Speed
1 2 3 3 2 5 6 5 4 3 3 7 4 11 7 5 5 2 3 6 11 12 8 8 7 7 8 6 6 6 5 5 5 5 5 6 6 6 6 5 4 4 4 3 4 5 5 6 7
2 1 3 2 1 9 5 6 6 3 0 4 7 5 2 10 13 9 6 7 10 11 7 9 8 8 9 9 9 8 8 7 7 7 6 6 6 5 5 4 3 3 3 4 4 4 5 6 8
3 3 2 2 5 6 8 6 6 4 5 5 3 4 4 6 4 5 6 7 11 11 11 9 8 8 10 11 11 11 11 9 10 9 9 9 8 8 7 6 6 5 4 5 5 6 6 7 7
1 3 2 1 7 4 7 2 6 3 5 6 8 3 1 5 9 9 7 9 10 15 10 10 9 9 9 10 11 12 12 12 12 11 11 11 11 11 11 9 9 8 7 7 7 8 8 8 9
2 3 4 4 1 5 4 3 6 5 5 3 9 9 4 5 11 6 5 6 4 7 15 9 9 10 11 11 12 12 13 13 13 13 13 14 14 13 13 13 13 12 10 10 10 10 10 10 10
3 3 2 3 5 3 1 6 5 4 4 2 4 8 3 8 11 7 5 9 3 12 13 12 11 11 12 13 13 13 13 14 14 15 15 16 16 16 16 17 17 16 15 14 14 13 13 13 12
2 6 4 4 3 3 4 2 6 5 6 6 2 4 5 10 10 11 9 9 13 15 10 17 14 14 15 15 14 13 13 14 15 16 16 17 17 18 19 19 19 19 18 18 17 17 16 15 14
4 6 2 3 3 3 5 5 7 3 8 7 3 7 12 18 16 18 10 8 17 20 21 20 21 18 16 14 14 14 15 15 16 17 19 19 20 20 20 21 21 21 20 21 21 20 18 17 17
7 6 6 5 3 2 6 5 6 2 3 5 3 10 17 15 15 8 10 12 18 20 15 17 18 19 20 20 19 18 20 21 22 22 23 24 24 23 23 24 24 23 23 23 23 23 21 20 18
9 3 2 2 3 7 4 5 9 1 6 13 15 16 18 18 14 11 17 17 19 23 24 20 20 22 23 24 24 25 26 26 26 26 26 26 27 27 27 28 27 24 24 25 26 24 23 23 20
4 1 1 6 6 7 7 3 11 8 10 18 18 19 17 17 15 16 19 19 23 22 21 22 22 24 26 28 31 31 31 32 32 32 33 32 30 27 31 27 28 32 24 30 26 26 25 24 23
3 4 4 6 7 8 9 9 8 13 13 16 17 17 17 20 22 21 25 26 28 32 29 30 31 33 36 37 36 35 35 37 37 37 37 36 37 33 31 33 31 31 27 26 27 27 28 25 25
3 7 7 7 7 9 8 10 6 20 17 17 16 19 22 23 25 25 28 30 35 38 39 39 41 41 43 42 39 37 37 36 36 37 38 39 39 35 33 31 33 37 37 32 34 20 24 24 26
6 7 9 9 13 20 14 10 14 18 22 21 22 28 27 24 27 30 31 37 38 42 44 45 46 50 44 42 40 39 37 36 35 36 37 37 38 38 36 33 33 35 34 32 30 28 25 25 24
7 6 13 12 20 23 16 12 10 15 19 20 15 23 36 36 34 36 34 38 39 40 41 41 38 41 38 38 38 37 38 39 39 38 37 38 42 41 39 38 36 35 34 34 31 31 30 29 27
10 7 10 15 23 19 19 7 2 9 15 28 27 28 34 42 40 38 34 30 30 30 33 33 33 35 39 39 40 41 41 40 40 39 40 41 44 42 43 45 43 39 37 37 35 33 33 31 28
3 11 14 13 16 19 25 30 22 14 24 31 34 37 37 35 31 33 27 26 27 27 31 31 34 36 38 40 41 41 41 40 41 39 39 41 41 42 45 46 44 44 40 39 38 38 35 34 32
13 15 13 15 20 29 33 35 28 21 28 29 32 37 21 15 22 25 28 28 25 26 33 34 34 38 42 43 46 48 49 49 46 44 43 41 41 42 42 44 46 46 44 42 39 39 38 38 36
11 10 13 19 22 34 38 30 27 22 29 35 30 16 16 13 7 13 19 23 24 31 38 45 45 48 50 52 48 42 41 40 42 39 38 42 43 45 45 45 44 45 47 48 44 42 42 41 37
11 14 19 27 33 32 24 31 29 18 22 28 23 16 10 10 13 14 18 21 29 34 34 45 49 48 45 43 40 40 41 42 40 37 37 35 33 37 40 42 42 43 43 46 47 45 45 44 40
17 13 26 34 31 16 15 30 9 13 15 14 8 3 6 13 17 20 25 31 32 35 34 37 42 41 38 37 35 34 33 33 35 37 38 35 32 34 35 37 41 43 42 42 42 44 45 46 43
15 19 32 26 23 8 22 12 22 17 12 6 3 9 14 22 22 24 28 34 45 46 33 29 38 42 37 36 33 32 33 36 35 36 35 35 35 32 32 34 36 41 44 43 41 39 42 44 45
20 35 37 24 23 23 20 6 10 13 6 4 6 12 18 23 23 30 35 37 43 37 28 29 34 32 34 37 37 39 34 32 34 34 33 32 31 32 31 32 32 33 41 45 43 42 39 36 37
24 35 24 15 7 4 11 20 11 16 9 10 11 18 20 24 31 35 35 32 34 30 23 27 30 33 33 31 34 37 42 42 38 34 31 28 27 27 29 30 31 33 33 41 45 42 42 39 36
27 23 11 4 2 6 30 26 5 10 17 13 24 31 34 30 33 35 34 32 27 27 27 26 29 29 33 36 35 34 40 41 43 35 29 28 28 24 27 28 30 30 32 34 37 44 41 38 33
9 11 4 6 4 16 31 6 11 13 10 30 27 25 27 29 30 35 30 29 31 30 29 30 29 29 29 30 32 36 37 40 40 35 29 30 29 27 26 27 28 29 30 32 35 40 42 40 36
12 7 15 13 21 20 11 17 24 40 37 39 33 34 33 31 32 29 29 28 29 31 30 31 33 35 34 31 34 37 39 35 36 34 31 30 28 28 28 26 25 28 29 28 35 34 39 38 35
10 13 9 7 5 6 14 39 23 39 47 40 41 34 30 31 28 28 29 30 29 33 36 36 36 35 30 31 35 40 33 29 30 31 30 28 27 26 28 27 25 28 27 27 32 31 29 32 29
12 11 8 15 13 7 10 13 37 39 42 43 34 36 27 29 30 30 31 31 31 36 38 38 35 32 34 37 35 33 29 27 27 29 29 28 27 28 28 28 29 25 25 25 27 29 27 28 32
9 6 10 14 15 24 28 37 17 39 37 36 38 27 24 23 28 30 33 33 34 36 36 37 36 35 36 38 34 32 29 28 29 28 28 27 27 28 30 32 25 17 19 20 25 28 30 28 31
Wind_Direction
176 167 161 143 154 247 267 132 72 106 111 44 356 52 27 27 3 21 359 335 324 320 336 338 313 290 287 293 291 298 302 315 321 332 344 349 359 7 8 10 14 15 15 350 336 332 329 328 328
225 271 114 146 311 262 82 64 136 115 226 30 9 38 42 43 25 337 323 327 319 323 347 331 313 302 294 290 290 289 295 293 299 301 308 313 321 332 333 336 335 344 346 340 332 326 325 324 326
211 204 181 62 313 360 59 70 88 41 49 61 49 345 243 73 20 291 325 307 303 309 316 322 319 300 285 280 280 282 279 284 283 283 285 285 288 290 291 301 307 307 313 315 319 319 321 322 323
149 184 166 225 303 46 51 61 68 51 57 50 65 41 251 251 269 290 320 315 329 308 322 336 330 322 304 296 293 291 290 287 284 282 278 280 280 281 280 280 286 288 290 297 302 305 309 310 315
125 120 114 300 317 37 312 356 70 44 42 334 49 31 341 311 301 293 307 318 334 287 301 315 306 299 295 292 293 291 290 286 283 283 282 278 275 272 270 270 274 278 279 283 286 291 295 299 304
121 88 258 315 113 96 4 72 11 49 0 293 137 26 342 302 316 7 39 322 281 298 300 306 293 292 296 295 293 291 289 285 285 286 283 279 277 275 269 271 272 274 275 276 279 280 283 286 293
167 144 332 33 77 163 271 42 201 97 240 297 23 52 264 281 294 316 302 269 286 280 284 291 292 291 297 295 289 282 279 279 280 282 282 280 279 277 276 274 275 273 271 272 273 273 273 276 284
87 110 84 123 52 102 315 350 305 225 353 318 284 184 253 261 286 294 303 279 271 277 289 302 306 307 292 284 278 276 275 276 280 283 282 279 275 274 273 272 274 274 271 272 270 268 270 273 277
90 54 89 87 116 57 318 125 307 21 109 311 108 249 260 292 292 298 260 250 272 285 299 287 287 290 289 287 283 276 273 273 274 276 279 277 275 273 273 270 268 269 272 272 268 270 269 271 273
88 321 335 224 244 249 297 343 296 153 226 249 259 285 292 291 298 255 270 270 275 281 286 284 282 281 279 280 279 275 273 272 274 274 273 275 271 273 268 267 265 262 261 267 267 267 267 269 273
102 177 45 323 329 318 313 287 295 288 253 274 282 293 294 292 289 280 284 283 280 276 275 275 272 272 274 276 276 273 269 267 265 265 268 272 274 273 267 269 270 262 259 258 256 263 263 266 271
347 0 347 330 331 321 318 314 286 297 291 290 290 288 288 286 292 292 291 291 287 288 284 283 283 283 283 280 276 270 265 265 262 262 261 262 264 265 261 259 267 273 276 267 271 263 263 262 264
341 347 344 347 2 349 335 320 265 300 304 305 299 291 285 283 283 283 282 283 282 281 281 279 278 280 280 277 275 272 269 266 262 260 259 259 260 259 256 258 259 261 265 271 280 232 264 260 259
353 351 6 349 348 334 324 319 305 294 310 308 313 299 291 284 281 281 282 281 277 277 277 276 276 278 276 275 273 271 268 265 263 261 259 255 254 254 255 254 256 257 261 265 261 263 258 267 264
25 9 2 332 336 321 329 0 312 272 291 290 275 292 294 296 292 288 285 284 281 279 280 281 281 280 278 278 278 276 273 271 268 262 259 257 255 250 251 253 255 258 259 259 260 257 256 260 267
21 28 5 341 332 334 339 26 118 312 293 289 290 289 290 298 297 293 291 285 282 282 281 282 282 286 290 288 281 280 280 278 273 268 267 262 258 256 252 252 252 254 257 258 258 258 257 257 258
351 0 350 338 312 303 315 315 321 287 261 272 278 284 289 289 290 291 288 284 285 289 285 288 293 295 293 295 294 291 285 281 279 277 273 267 265 263 258 255 253 252 254 254 258 259 262 263 259
332 344 339 315 312 311 317 316 313 284 288 282 280 289 287 279 293 302 296 294 301 304 301 292 296 300 297 295 295 293 290 289 287 280 276 276 270 267 264 260 257 254 252 252 254 257 259 261 259
360 330 320 311 321 314 317 306 310 296 276 275 284 272 257 256 263 293 304 320 319 321 318 311 310 310 308 303 302 300 297 294 288 288 282 280 277 272 269 267 264 258 254 252 251 254 257 256 257
344 314 318 330 322 313 324 311 307 281 257 262 276 260 293 315 303 305 319 317 317 318 314 314 314 314 308 302 300 296 293 291 290 288 288 285 277 271 268 265 263 260 258 254 251 249 253 255 251
348 317 325 318 325 349 319 314 313 310 286 265 277 269 314 328 332 321 309 312 315 315 312 309 312 313 315 309 308 303 299 295 291 284 280 281 283 279 272 262 258 258 259 257 252 248 249 252 250
353 321 328 325 323 311 325 289 305 298 300 64 241 321 345 328 324 314 313 309 313 314 317 303 301 308 315 315 313 312 310 305 302 300 298 288 285 283 279 271 266 256 253 252 252 248 245 245 247
332 335 340 317 299 301 317 300 60 345 107 158 289 313 320 312 314 319 318 313 316 316 312 294 301 314 317 321 318 318 313 310 309 305 303 301 294 288 282 276 267 262 256 252 247 244 242 241 244
338 331 345 309 268 257 47 353 299 300 314 328 345 337 335 326 327 326 320 319 320 320 319 311 315 315 313 306 316 316 316 317 310 308 304 301 297 291 280 277 268 261 260 252 250 247 245 244 241
327 353 341 353 220 269 325 330 342 345 337 348 324 323 333 333 328 328 324 326 327 329 327 323 315 307 304 312 310 310 306 309 312 305 302 302 297 290 282 280 270 263 262 255 245 245 242 239 241
3 3 358 298 333 299 322 312 339 10 9 343 339 339 326 329 326 328 323 322 326 332 331 327 322 314 307 305 305 302 302 305 309 313 306 306 302 302 296 284 276 263 264 255 238 242 246 248 238
320 8 305 279 290 267 271 300 285 298 312 337 333 334 330 331 326 327 319 322 320 323 320 318 314 308 308 312 306 302 305 299 305 307 305 305 302 305 303 291 278 269 264 259 235 236 244 246 245
340 346 335 315 310 308 297 306 307 322 324 333 333 330 335 332 329 319 318 319 324 317 315 321 320 319 319 306 308 310 309 304 312 309 307 303 304 307 299 292 283 282 267 255 238 230 238 241 223
310 330 309 300 288 291 304 289 305 319 326 331 327 326 330 329 335 331 324 322 319 311 318 324 325 317 312 314 323 318 313 318 318 313 311 306 308 309 298 296 289 271 254 242 232 228 232 230 227
347 4 322 328 303 300 292 291 312 319 321 325 325 326 320 330 322 318 323 317 309 318 322 323 325 317 312 316 323 318 319 320 318 316 312 308 306 307 302 294 276 269 251 246 229 224 222 220 216
Height
3155 3155 3156 3157 3162 3157 3155 3157 3159 3160 3160 3161 3161 3160 3161 3158 3159 3163 3159 3159 3158 3157 3158 3157 3156 3155 3155 3155 3155 3155 3155 3154 3154 3154 3153 3152 3152 3150 3150 3149 3149 3149 3148 3149 3148 3148 3148 3148 3147
3155 3155 3156 3157 3158 3158 3158 3158 3158 3159 3160 3161 3161 3161 3162 3161 3159 3158 3160 3159 3158 3156 3157 3157 3156 3155 3154 3154 3154 3154 3153 3154 3153 3153 3152 3151 3151 3150 3149 3149 3148 3148 3148 3148 3147 3147 3147 3146 3146
3155 3156 3158 3158 3157 3158 3159 3158 3158 3160 3161 3162 3162 3162 3161 3162 3161 3160 3161 3159 3157 3157 3156 3156 3154 3153 3153 3152 3152 3152 3152 3152 3152 3152 3151 3151 3150 3149 3149 3148 3148 3148 3147 3147 3146 3145 3145 3145 3145
3155 3157 3159 3158 3158 3158 3159 3158 3160 3163 3162 3162 3163 3160 3160 3161 3160 3160 3160 3159 3157 3154 3155 3153 3153 3152 3151 3151 3151 3151 3150 3150 3150 3150 3150 3149 3149 3148 3148 3147 3147 3146 3146 3145 3145 3144 3144 3144 3143
3155 3157 3158 3158 3159 3159 3159 3159 3161 3163 3163 3162 3163 3162 3159 3159 3160 3159 3160 3159 3158 3154 3152 3153 3152 3151 3150 3150 3149 3149 3148 3148 3147 3147 3147 3147 3146 3146 3145 3145 3145 3144 3144 3144 3143 3143 3142 3142 3141
3155 3157 3158 3159 3157 3159 3159 3160 3162 3162 3162 3161 3162 3164 3159 3157 3159 3159 3159 3157 3157 3153 3150 3150 3150 3149 3148 3148 3147 3147 3146 3145 3145 3145 3145 3145 3144 3143 3143 3143 3142 3142 3142 3141 3141 3140 3140 3140 3139
3154 3156 3157 3158 3158 3159 3158 3159 3159 3160 3159 3159 3162 3163 3159 3157 3158 3158 3158 3157 3154 3152 3151 3146 3149 3150 3147 3147 3146 3145 3144 3143 3143 3142 3142 3141 3140 3140 3140 3140 3139 3139 3139 3138 3138 3137 3137 3137 3136
3155 3156 3157 3158 3159 3158 3158 3159 3159 3160 3158 3159 3159 3158 3156 3155 3157 3156 3156 3152 3148 3148 3147 3147 3145 3145 3145 3144 3143 3143 3142 3141 3140 3139 3139 3138 3137 3137 3136 3136 3136 3135 3135 3135 3134 3134 3134 3134 3133
3155 3157 3156 3157 3158 3159 3157 3158 3157 3158 3160 3157 3156 3154 3155 3156 3154 3153 3150 3148 3146 3145 3146 3145 3144 3143 3141 3141 3141 3140 3139 3138 3137 3136 3135 3133 3133 3133 3132 3131 3131 3130 3130 3130 3130 3130 3130 3130 3130
3156 3157 3156 3157 3156 3156 3156 3156 3156 3158 3159 3155 3153 3152 3151 3149 3150 3148 3146 3145 3144 3142 3141 3141 3140 3138 3137 3136 3136 3135 3134 3133 3133 3132 3131 3129 3128 3128 3127 3126 3125 3125 3124 3123 3124 3125 3126 3127 3127
3155 3155 3156 3155 3155 3155 3154 3154 3153 3153 3153 3150 3150 3149 3147 3145 3145 3144 3141 3141 3137 3137 3136 3134 3133 3132 3130 3129 3127 3127 3127 3126 3126 3125 3124 3124 3123 3123 3123 3121 3119 3117 3116 3116 3118 3118 3120 3121 3122
3157 3156 3155 3154 3154 3153 3153 3152 3151 3150 3150 3148 3147 3145 3144 3142 3141 3141 3139 3138 3135 3131 3132 3130 3128 3127 3124 3122 3120 3119 3118 3116 3115 3116 3115 3114 3115 3115 3115 3114 3113 3107 3108 3108 3108 3112 3116 3116 3118
3156 3155 3154 3154 3153 3152 3151 3150 3150 3146 3146 3145 3144 3142 3140 3139 3137 3136 3133 3131 3127 3124 3123 3122 3119 3117 3114 3112 3111 3110 3109 3108 3108 3107 3107 3107 3106 3107 3107 3107 3107 3106 3105 3105 3101 3084 3110 3112 3112
3156 3154 3154 3153 3152 3150 3150 3149 3146 3143 3142 3141 3139 3134 3134 3134 3132 3129 3128 3124 3121 3115 3111 3109 3107 3105 3105 3104 3103 3102 3100 3099 3099 3099 3099 3098 3098 3098 3098 3099 3099 3099 3099 3099 3101 3104 3104 3103 3106
3155 3155 3154 3153 3153 3149 3149 3147 3145 3143 3142 3141 3141 3131 3126 3127 3125 3122 3119 3115 3111 3107 3104 3102 3100 3098 3097 3096 3094 3093 3092 3091 3091 3089 3089 3089 3088 3089 3090 3090 3091 3091 3092 3092 3093 3096 3097 3097 3099
3156 3157 3158 3155 3152 3149 3148 3149 3148 3146 3142 3137 3133 3129 3121 3117 3115 3112 3110 3108 3105 3101 3098 3096 3093 3091 3089 3088 3087 3085 3084 3083 3080 3080 3079 3077 3076 3079 3080 3080 3081 3082 3083 3084 3085 3087 3088 3089 3091
3157 3158 3157 3156 3152 3148 3146 3142 3141 3139 3135 3130 3126 3122 3119 3112 3106 3103 3102 3101 3100 3097 3092 3090 3087 3084 3081 3079 3077 3075 3073 3073 3071 3070 3069 3067 3067 3067 3067 3069 3071 3072 3074 3075 3076 3078 3080 3082 3085
3156 3153 3152 3151 3148 3142 3138 3134 3132 3132 3126 3123 3120 3116 3111 3107 3103 3099 3095 3094 3093 3091 3086 3085 3082 3079 3075 3071 3069 3066 3063 3061 3060 3059 3059 3057 3057 3055 3055 3056 3058 3062 3063 3065 3067 3069 3073 3074 3077
3154 3153 3150 3147 3143 3134 3130 3122 3120 3120 3118 3113 3112 3110 3106 3103 3101 3096 3091 3089 3088 3084 3079 3074 3073 3069 3065 3060 3058 3055 3052 3050 3048 3047 3046 3046 3045 3045 3045 3047 3048 3049 3051 3054 3057 3059 3062 3066 3070
3153 3150 3146 3142 3138 3130 3122 3115 3116 3114 3113 3113 3111 3108 3107 3104 3100 3097 3092 3087 3083 3080 3077 3070 3064 3061 3056 3053 3051 3048 3045 3042 3040 3037 3035 3033 3034 3034 3033 3034 3036 3038 3040 3042 3045 3048 3051 3055 3061
3150 3148 3144 3139 3128 3126 3121 3111 3110 3110 3109 3108 3107 3104 3102 3100 3097 3094 3089 3085 3080 3076 3072 3065 3057 3054 3050 3046 3044 3040 3036 3033 3030 3028 3026 3024 3022 3022 3023 3024 3024 3026 3027 3031 3036 3038 3040 3044 3050
3147 3145 3141 3132 3128 3124 3124 3115 3116 3110 3107 3107 3105 3101 3100 3097 3094 3089 3083 3079 3074 3072 3067 3061 3054 3049 3045 3040 3036 3033 3028 3023 3022 3019 3016 3014 3013 3012 3011 3012 3014 3015 3015 3019 3024 3028 3031 3033 3037
3145 3139 3132 3129 3126 3125 3118 3121 3116 3112 3109 3106 3101 3096 3093 3091 3088 3084 3079 3073 3067 3064 3059 3056 3050 3045 3041 3036 3031 3026 3021 3019 3015 3011 3007 3005 3003 3002 3002 3001 3001 3003 3005 3007 3011 3016 3020 3023 3027
3138 3131 3126 3123 3123 3122 3120 3122 3112 3107 3104 3103 3099 3095 3091 3088 3083 3078 3072 3068 3063 3059 3054 3049 3044 3041 3034 3031 3027 3021 3015 3013 3008 3004 2999 2996 2994 2993 2993 2991 2991 2991 2993 2996 3000 3005 3008 3013 3015
3140 3133 3126 3123 3121 3118 3108 3111 3107 3106 3106 3103 3097 3090 3086 3083 3078 3072 3069 3063 3059 3055 3050 3045 3040 3036 3032 3027 3023 3018 3012 3007 3001 2995 2992 2989 2985 2984 2983 2981 2981 2981 2982 2984 2987 2991 2996 3002 3005
3138 3138 3140 3138 3127 3121 3115 3115 3114 3111 3110 3104 3096 3090 3085 3080 3074 3069 3066 3062 3056 3050 3046 3040 3036 3031 3026 3022 3016 3011 3006 3000 2994 2989 2985 2982 2979 2976 2973 2972 2971 2971 2972 2973 2976 2980 2985 2991 2992
3139 3140 3143 3138 3129 3124 3114 3110 3110 3107 3099 3096 3091 3086 3081 3074 3069 3067 3063 3059 3053 3048 3043 3037 3031 3026 3020 3015 3009 3003 2998 2993 2988 2983 2979 2975 2972 2968 2964 2963 2962 2962 2962 2963 2967 2971 2976 2982 2985
3140 3141 3139 3137 3133 3124 3110 3107 3105 3102 3098 3094 3086 3080 3076 3070 3066 3064 3060 3055 3050 3044 3038 3032 3026 3019 3013 3009 3003 2995 2989 2986 2981 2977 2972 2969 2965 2961 2957 2955 2954 2953 2953 2955 2958 2962 2968 2973 2979
3141 3140 3141 3138 3134 3124 3113 3104 3106 3101 3098 3092 3082 3080 3073 3069 3065 3061 3056 3051 3047 3040 3033 3027 3020 3014 3008 3002 2996 2989 2984 2980 2975 2970 2966 2962 2958 2954 2950 2947 2945 2943 2944 2946 2949 2954 2960 2965 2973
3139 3141 3141 3138 3131 3129 3121 3102 3107 3101 3094 3088 3081 3077 3071 3067 3063 3058 3053 3047 3041 3034 3028 3021 3015 3009 3003 2996 2990 2983 2979 2974 2969 2964 2960 2957 2952 2947 2941 2937 2935 2935 2936 2939 2941 2946 2952 2958 2964